User: anonymous   Login
Location: Zlin
(49.2330°N, 17.6670°E)
Time: 15:29:38
(UTC+02:00)
Language:

ISS - Orbit

View from above orbital plane
View from above orbital plane
View from above satellite
View from above satellite

Ground track
Ground track

The orbit data is extracted from the following two-line orbital elements,

1 25544U 98067A   14297.09121012  .00021622  00000-0  37497-3 0  2921
2 25544 051.6464 180.6117 0002419 297.8984 212.5827 15.50806957911324
Epoch (UTC): 24 October 2014 02:11:20
Eccentricity: 0.0002419
inclination: 51.6464°
perigee height: 413 km
apogee height: 416 km
right ascension of ascending node: 180.6117°
argument of perigee: 297.8984°
revolutions per day: 15.50806957
mean anomaly at epoch: 212.5827°
orbit number at epoch: 91132

The dashed part of the orbit path shows where the satellite is in the earth's shadow,  

DLR